<?xml version="1.0" encoding="UTF-8" ?>
<gpx version="1.1" xmlns:xsi="http://www.w3.org/2001/XMLSchema-instance" 
    xmlns="http://www.topografix.com/GPX/1/1" 
    xsi:schemaLocation="http://www.topografix.com/GPX/1/1 http://www.topografix.com/GPX/1/1/gpx.xsd" 
    creator="Openrunner - https://www.openrunner.com" >	<trk>
						<name>trail IMP 2025 PB V3-20652723</name>
						<trkseg>
					<trkpt lat="45.701700" lon="3.056480">
						<ele>711</ele>
						<time>2025-03-13T13:32:15Z</time>
					</trkpt>
					<trkpt lat="45.701610" lon="3.056410">
						<ele>711</ele>
						<time>2025-03-13T13:32:20Z</time>
					</trkpt>
					<trkpt lat="45.701530" lon="3.056320">
						<ele>710</ele>
						<time>2025-03-13T13:32:25Z</time>
					</trkpt>
					<trkpt lat="45.701470" lon="3.056260">
						<ele>710</ele>
						<time>2025-03-13T13:32:29Z</time>
					</trkpt>
					<trkpt lat="45.701210" lon="3.055950">
						<ele>709</ele>
						<time>2025-03-13T13:32:46Z</time>
					</trkpt>
					<trkpt lat="45.700980" lon="3.055730">
						<ele>706</ele>
						<time>2025-03-13T13:33:00Z</time>
					</trkpt>
					<trkpt lat="45.700680" lon="3.055440">
						<ele>704</ele>
						<time>2025-03-13T13:33:18Z</time>
					</trkpt>
					<trkpt lat="45.700440" lon="3.055250">
						<ele>702</ele>
						<time>2025-03-13T13:33:31Z</time>
					</trkpt>
					<trkpt lat="45.700200" lon="3.055100">
						<ele>700</ele>
						<time>2025-03-13T13:33:45Z</time>
					</trkpt>
					<trkpt lat="45.699890" lon="3.054940">
						<ele>697</ele>
						<time>2025-03-13T13:34:01Z</time>
					</trkpt>
					<trkpt lat="45.699500" lon="3.054760">
						<ele>690</ele>
						<time>2025-03-13T13:34:22Z</time>
					</trkpt>
					<trkpt lat="45.699150" lon="3.054300">
						<ele>685</ele>
						<time>2025-03-13T13:34:45Z</time>
					</trkpt>
					<trkpt lat="45.699110" lon="3.054050">
						<ele>684</ele>
						<time>2025-03-13T13:34:54Z</time>
					</trkpt>
					<trkpt lat="45.699170" lon="3.053790">
						<ele>682</ele>
						<time>2025-03-13T13:35:04Z</time>
					</trkpt>
					<trkpt lat="45.699290" lon="3.053510">
						<ele>681</ele>
						<time>2025-03-13T13:35:15Z</time>
					</trkpt>
					<trkpt lat="45.699500" lon="3.053230">
						<ele>681</ele>
						<time>2025-03-13T13:35:30Z</time>
					</trkpt>
					<trkpt lat="45.699690" lon="3.052910">
						<ele>681</ele>
						<time>2025-03-13T13:35:44Z</time>
					</trkpt>
					<trkpt lat="45.699810" lon="3.052680">
						<ele>680</ele>
						<time>2025-03-13T13:35:54Z</time>
					</trkpt>
					<trkpt lat="45.699870" lon="3.052460">
						<ele>679</ele>
						<time>2025-03-13T13:36:03Z</time>
					</trkpt>
					<trkpt lat="45.699870" lon="3.052360">
						<ele>679</ele>
						<time>2025-03-13T13:36:06Z</time>
					</trkpt>
					<trkpt lat="45.699870" lon="3.052110">
						<ele>680</ele>
						<time>2025-03-13T13:36:15Z</time>
					</trkpt>
					<trkpt lat="45.699830" lon="3.051980">
						<ele>679</ele>
						<time>2025-03-13T13:36:20Z</time>
					</trkpt>
					<trkpt lat="45.699790" lon="3.051860">
						<ele>679</ele>
						<time>2025-03-13T13:36:25Z</time>
					</trkpt>
					<trkpt lat="45.699400" lon="3.051620">
						<ele>676</ele>
						<time>2025-03-13T13:36:46Z</time>
					</trkpt>
					<trkpt lat="45.698820" lon="3.051390">
						<ele>673</ele>
						<time>2025-03-13T13:37:16Z</time>
					</trkpt>
					<trkpt lat="45.698710" lon="3.051530">
						<ele>670</ele>
						<time>2025-03-13T13:37:23Z</time>
					</trkpt>
					<trkpt lat="45.698610" lon="3.052280">
						<ele>666</ele>
						<time>2025-03-13T13:37:50Z</time>
					</trkpt>
					<trkpt lat="45.698460" lon="3.052760">
						<ele>663</ele>
						<time>2025-03-13T13:38:08Z</time>
					</trkpt>
					<trkpt lat="45.698300" lon="3.053260">
						<ele>661</ele>
						<time>2025-03-13T13:38:28Z</time>
					</trkpt>
					<trkpt lat="45.698120" lon="3.053890">
						<ele>662</ele>
						<time>2025-03-13T13:38:51Z</time>
					</trkpt>
					<trkpt lat="45.698010" lon="3.054040">
						<ele>662</ele>
						<time>2025-03-13T13:38:59Z</time>
					</trkpt>
					<trkpt lat="45.697710" lon="3.054190">
						<ele>659</ele>
						<time>2025-03-13T13:39:15Z</time>
					</trkpt>
					<trkpt lat="45.695560" lon="3.055450">
						<ele>650</ele>
						<time>2025-03-13T13:41:11Z</time>
					</trkpt>
					<trkpt lat="45.695290" lon="3.055570">
						<ele>649</ele>
						<time>2025-03-13T13:41:25Z</time>
					</trkpt>
					<trkpt lat="45.695040" lon="3.055590">
						<ele>647</ele>
						<time>2025-03-13T13:41:38Z</time>
					</trkpt>
					<trkpt lat="45.694570" lon="3.055550">
						<ele>641</ele>
						<time>2025-03-13T13:42:01Z</time>
					</trkpt>
					<trkpt lat="45.694460" lon="3.055530">
						<ele>639</ele>
						<time>2025-03-13T13:42:07Z</time>
					</trkpt>
					<trkpt lat="45.694250" lon="3.055570">
						<ele>637</ele>
						<time>2025-03-13T13:42:18Z</time>
					</trkpt>
					<trkpt lat="45.693900" lon="3.055920">
						<ele>634</ele>
						<time>2025-03-13T13:42:39Z</time>
					</trkpt>
					<trkpt lat="45.693820" lon="3.055900">
						<ele>634</ele>
						<time>2025-03-13T13:42:43Z</time>
					</trkpt>
					<trkpt lat="45.693720" lon="3.055890">
						<ele>634</ele>
						<time>2025-03-13T13:42:48Z</time>
					</trkpt>
					<trkpt lat="45.693650" lon="3.055920">
						<ele>634</ele>
						<time>2025-03-13T13:42:52Z</time>
					</trkpt>
					<trkpt lat="45.693580" lon="3.055960">
						<ele>634</ele>
						<time>2025-03-13T13:42:55Z</time>
					</trkpt>
					<trkpt lat="45.693500" lon="3.056000">
						<ele>634</ele>
						<time>2025-03-13T13:43:00Z</time>
					</trkpt>
					<trkpt lat="45.693470" lon="3.056010">
						<ele>634</ele>
						<time>2025-03-13T13:43:01Z</time>
					</trkpt>
					<trkpt lat="45.693550" lon="3.056250">
						<ele>635</ele>
						<time>2025-03-13T13:43:10Z</time>
					</trkpt>
					<trkpt lat="45.693580" lon="3.056560">
						<ele>637</ele>
						<time>2025-03-13T13:43:21Z</time>
					</trkpt>
					<trkpt lat="45.693590" lon="3.057220">
						<ele>639</ele>
						<time>2025-03-13T13:43:44Z</time>
					</trkpt>
					<trkpt lat="45.693600" lon="3.057650">
						<ele>639</ele>
						<time>2025-03-13T13:44:00Z</time>
					</trkpt>
					<trkpt lat="45.693590" lon="3.058250">
						<ele>639</ele>
						<time>2025-03-13T13:44:20Z</time>
					</trkpt>
					<trkpt lat="45.693670" lon="3.058960">
						<ele>638</ele>
						<time>2025-03-13T13:44:46Z</time>
					</trkpt>
					<trkpt lat="45.693980" lon="3.059960">
						<ele>630</ele>
						<time>2025-03-13T13:45:24Z</time>
					</trkpt>
					<trkpt lat="45.694250" lon="3.061350">
						<ele>623</ele>
						<time>2025-03-13T13:46:14Z</time>
					</trkpt>
					<trkpt lat="45.694140" lon="3.061900">
						<ele>625</ele>
						<time>2025-03-13T13:46:34Z</time>
					</trkpt>
					<trkpt lat="45.694030" lon="3.063970">
						<ele>621</ele>
						<time>2025-03-13T13:47:47Z</time>
					</trkpt>
					<trkpt lat="45.694030" lon="3.064040">
						<ele>620</ele>
						<time>2025-03-13T13:47:49Z</time>
					</trkpt>
					<trkpt lat="45.693980" lon="3.064070">
						<ele>622</ele>
						<time>2025-03-13T13:47:52Z</time>
					</trkpt>
					<trkpt lat="45.693710" lon="3.064660">
						<ele>624</ele>
						<time>2025-03-13T13:48:17Z</time>
					</trkpt>
					<trkpt lat="45.693340" lon="3.065000">
						<ele>630</ele>
						<time>2025-03-13T13:48:39Z</time>
					</trkpt>
					<trkpt lat="45.692720" lon="3.065130">
						<ele>645</ele>
						<time>2025-03-13T13:49:10Z</time>
					</trkpt>
					<trkpt lat="45.692210" lon="3.065050">
						<ele>660</ele>
						<time>2025-03-13T13:49:36Z</time>
					</trkpt>
					<trkpt lat="45.691820" lon="3.064930">
						<ele>671</ele>
						<time>2025-03-13T13:49:56Z</time>
					</trkpt>
					<trkpt lat="45.691230" lon="3.064980">
						<ele>678</ele>
						<time>2025-03-13T13:50:25Z</time>
					</trkpt>
					<trkpt lat="45.690980" lon="3.065220">
						<ele>677</ele>
						<time>2025-03-13T13:50:40Z</time>
					</trkpt>
					<trkpt lat="45.690640" lon="3.065740">
						<ele>675</ele>
						<time>2025-03-13T13:51:05Z</time>
					</trkpt>
					<trkpt lat="45.690470" lon="3.065830">
						<ele>676</ele>
						<time>2025-03-13T13:51:14Z</time>
					</trkpt>
					<trkpt lat="45.690110" lon="3.065870">
						<ele>681</ele>
						<time>2025-03-13T13:51:32Z</time>
					</trkpt>
					<trkpt lat="45.689930" lon="3.066220">
						<ele>682</ele>
						<time>2025-03-13T13:51:48Z</time>
					</trkpt>
					<trkpt lat="45.689840" lon="3.066290">
						<ele>683</ele>
						<time>2025-03-13T13:51:53Z</time>
					</trkpt>
					<trkpt lat="45.689840" lon="3.066470">
						<ele>682</ele>
						<time>2025-03-13T13:51:59Z</time>
					</trkpt>
					<trkpt lat="45.689940" lon="3.066460">
						<ele>680</ele>
						<time>2025-03-13T13:52:04Z</time>
					</trkpt>
					<trkpt lat="45.690160" lon="3.066690">
						<ele>674</ele>
						<time>2025-03-13T13:52:18Z</time>
					</trkpt>
					<trkpt lat="45.690250" lon="3.067150">
						<ele>669</ele>
						<time>2025-03-13T13:52:34Z</time>
					</trkpt>
					<trkpt lat="45.690220" lon="3.067710">
						<ele>666</ele>
						<time>2025-03-13T13:52:54Z</time>
					</trkpt>
					<trkpt lat="45.690150" lon="3.068220">
						<ele>661</ele>
						<time>2025-03-13T13:53:12Z</time>
					</trkpt>
					<trkpt lat="45.690060" lon="3.068740">
						<ele>658</ele>
						<time>2025-03-13T13:53:31Z</time>
					</trkpt>
					<trkpt lat="45.689850" lon="3.069390">
						<ele>654</ele>
						<time>2025-03-13T13:53:56Z</time>
					</trkpt>
					<trkpt lat="45.689730" lon="3.069680">
						<ele>653</ele>
						<time>2025-03-13T13:54:08Z</time>
					</trkpt>
					<trkpt lat="45.689690" lon="3.070360">
						<ele>646</ele>
						<time>2025-03-13T13:54:32Z</time>
					</trkpt>
					<trkpt lat="45.689670" lon="3.070740">
						<ele>644</ele>
						<time>2025-03-13T13:54:45Z</time>
					</trkpt>
					<trkpt lat="45.689620" lon="3.071100">
						<ele>642</ele>
						<time>2025-03-13T13:54:58Z</time>
					</trkpt>
					<trkpt lat="45.689430" lon="3.071600">
						<ele>643</ele>
						<time>2025-03-13T13:55:18Z</time>
					</trkpt>
					<trkpt lat="45.689320" lon="3.071980">
						<ele>642</ele>
						<time>2025-03-13T13:55:32Z</time>
					</trkpt>
					<trkpt lat="45.689020" lon="3.073100">
						<ele>643</ele>
						<time>2025-03-13T13:56:14Z</time>
					</trkpt>
					<trkpt lat="45.688980" lon="3.073260">
						<ele>643</ele>
						<time>2025-03-13T13:56:20Z</time>
					</trkpt>
					<trkpt lat="45.688960" lon="3.073400">
						<ele>643</ele>
						<time>2025-03-13T13:56:25Z</time>
					</trkpt>
					<trkpt lat="45.688880" lon="3.073570">
						<ele>643</ele>
						<time>2025-03-13T13:56:32Z</time>
					</trkpt>
					<trkpt lat="45.688810" lon="3.073680">
						<ele>643</ele>
						<time>2025-03-13T13:56:37Z</time>
					</trkpt>
					<trkpt lat="45.688450" lon="3.073980">
						<ele>645</ele>
						<time>2025-03-13T13:56:58Z</time>
					</trkpt>
					<trkpt lat="45.688250" lon="3.074150">
						<ele>644</ele>
						<time>2025-03-13T13:57:10Z</time>
					</trkpt>
					<trkpt lat="45.687850" lon="3.074580">
						<ele>645</ele>
						<time>2025-03-13T13:57:35Z</time>
					</trkpt>
					<trkpt lat="45.687460" lon="3.075360">
						<ele>647</ele>
						<time>2025-03-13T13:58:08Z</time>
					</trkpt>
					<trkpt lat="45.687300" lon="3.075620">
						<ele>652</ele>
						<time>2025-03-13T13:58:20Z</time>
					</trkpt>
					<trkpt lat="45.687160" lon="3.075810">
						<ele>655</ele>
						<time>2025-03-13T13:58:30Z</time>
					</trkpt>
					<trkpt lat="45.687080" lon="3.076050">
						<ele>658</ele>
						<time>2025-03-13T13:58:39Z</time>
					</trkpt>
					<trkpt lat="45.687190" lon="3.076440">
						<ele>657</ele>
						<time>2025-03-13T13:58:54Z</time>
					</trkpt>
					<trkpt lat="45.687180" lon="3.076730">
						<ele>659</ele>
						<time>2025-03-13T13:59:04Z</time>
					</trkpt>
					<trkpt lat="45.687010" lon="3.077200">
						<ele>664</ele>
						<time>2025-03-13T13:59:23Z</time>
					</trkpt>
					<trkpt lat="45.686950" lon="3.077450">
						<ele>666</ele>
						<time>2025-03-13T13:59:32Z</time>
					</trkpt>
					<trkpt lat="45.686820" lon="3.077670">
						<ele>670</ele>
						<time>2025-03-13T13:59:42Z</time>
					</trkpt>
					<trkpt lat="45.686800" lon="3.077930">
						<ele>670</ele>
						<time>2025-03-13T13:59:51Z</time>
					</trkpt>
					<trkpt lat="45.686810" lon="3.078240">
						<ele>669</ele>
						<time>2025-03-13T14:00:02Z</time>
					</trkpt>
					<trkpt lat="45.686900" lon="3.078790">
						<ele>666</ele>
						<time>2025-03-13T14:00:22Z</time>
					</trkpt>
					<trkpt lat="45.686950" lon="3.079500">
						<ele>664</ele>
						<time>2025-03-13T14:00:47Z</time>
					</trkpt>
					<trkpt lat="45.686960" lon="3.079920">
						<ele>663</ele>
						<time>2025-03-13T14:01:01Z</time>
					</trkpt>
					<trkpt lat="45.687220" lon="3.081240">
						<ele>653</ele>
						<time>2025-03-13T14:01:49Z</time>
					</trkpt>
					<trkpt lat="45.687090" lon="3.081700">
						<ele>656</ele>
						<time>2025-03-13T14:02:07Z</time>
					</trkpt>
					<trkpt lat="45.686800" lon="3.082590">
						<ele>659</ele>
						<time>2025-03-13T14:02:41Z</time>
					</trkpt>
					<trkpt lat="45.686600" lon="3.083510">
						<ele>657</ele>
						<time>2025-03-13T14:03:15Z</time>
					</trkpt>
					<trkpt lat="45.686240" lon="3.084350">
						<ele>660</ele>
						<time>2025-03-13T14:03:49Z</time>
					</trkpt>
					<trkpt lat="45.686030" lon="3.084870">
						<ele>661</ele>
						<time>2025-03-13T14:04:10Z</time>
					</trkpt>
					<trkpt lat="45.685860" lon="3.085400">
						<ele>661</ele>
						<time>2025-03-13T14:04:30Z</time>
					</trkpt>
					<trkpt lat="45.685780" lon="3.085780">
						<ele>661</ele>
						<time>2025-03-13T14:04:44Z</time>
					</trkpt>
					<trkpt lat="45.685760" lon="3.086290">
						<ele>658</ele>
						<time>2025-03-13T14:05:02Z</time>
					</trkpt>
					<trkpt lat="45.685560" lon="3.086720">
						<ele>659</ele>
						<time>2025-03-13T14:05:20Z</time>
					</trkpt>
					<trkpt lat="45.685490" lon="3.086750">
						<ele>660</ele>
						<time>2025-03-13T14:05:24Z</time>
					</trkpt>
					<trkpt lat="45.685380" lon="3.086890">
						<ele>661</ele>
						<time>2025-03-13T14:05:31Z</time>
					</trkpt>
					<trkpt lat="45.685240" lon="3.087100">
						<ele>661</ele>
						<time>2025-03-13T14:05:41Z</time>
					</trkpt>
					<trkpt lat="45.685110" lon="3.087340">
						<ele>660</ele>
						<time>2025-03-13T14:05:52Z</time>
					</trkpt>
					<trkpt lat="45.684960" lon="3.087860">
						<ele>654</ele>
						<time>2025-03-13T14:06:12Z</time>
					</trkpt>
					<trkpt lat="45.684870" lon="3.088050">
						<ele>652</ele>
						<time>2025-03-13T14:06:20Z</time>
					</trkpt>
					<trkpt lat="45.684720" lon="3.088270">
						<ele>649</ele>
						<time>2025-03-13T14:06:30Z</time>
					</trkpt>
					<trkpt lat="45.684430" lon="3.088410">
						<ele>648</ele>
						<time>2025-03-13T14:06:46Z</time>
					</trkpt>
					<trkpt lat="45.684250" lon="3.088610">
						<ele>646</ele>
						<time>2025-03-13T14:06:57Z</time>
					</trkpt>
					<trkpt lat="45.683950" lon="3.088950">
						<ele>645</ele>
						<time>2025-03-13T14:07:16Z</time>
					</trkpt>
					<trkpt lat="45.683830" lon="3.089160">
						<ele>644</ele>
						<time>2025-03-13T14:07:26Z</time>
					</trkpt>
					<trkpt lat="45.683590" lon="3.089780">
						<ele>640</ele>
						<time>2025-03-13T14:07:51Z</time>
					</trkpt>
					<trkpt lat="45.683500" lon="3.089990">
						<ele>639</ele>
						<time>2025-03-13T14:07:59Z</time>
					</trkpt>
					<trkpt lat="45.683300" lon="3.090250">
						<ele>640</ele>
						<time>2025-03-13T14:08:13Z</time>
					</trkpt>
					<trkpt lat="45.683170" lon="3.090400">
						<ele>641</ele>
						<time>2025-03-13T14:08:21Z</time>
					</trkpt>
					<trkpt lat="45.683130" lon="3.090460">
						<ele>641</ele>
						<time>2025-03-13T14:08:24Z</time>
					</trkpt>
					<trkpt lat="45.683030" lon="3.090450">
						<ele>643</ele>
						<time>2025-03-13T14:08:29Z</time>
					</trkpt>
					<trkpt lat="45.682960" lon="3.090970">
						<ele>640</ele>
						<time>2025-03-13T14:08:48Z</time>
					</trkpt>
					<trkpt lat="45.682920" lon="3.092770">
						<ele>634</ele>
						<time>2025-03-13T14:09:51Z</time>
					</trkpt>
					<trkpt lat="45.682940" lon="3.093340">
						<ele>632</ele>
						<time>2025-03-13T14:10:10Z</time>
					</trkpt>
					<trkpt lat="45.683000" lon="3.093870">
						<ele>631</ele>
						<time>2025-03-13T14:10:29Z</time>
					</trkpt>
					<trkpt lat="45.683080" lon="3.094080">
						<ele>629</ele>
						<time>2025-03-13T14:10:38Z</time>
					</trkpt>
					<trkpt lat="45.683360" lon="3.094930">
						<ele>623</ele>
						<time>2025-03-13T14:11:10Z</time>
					</trkpt>
					<trkpt lat="45.683700" lon="3.095100">
						<ele>617</ele>
						<time>2025-03-13T14:11:28Z</time>
					</trkpt>
					<trkpt lat="45.683800" lon="3.095370">
						<ele>614</ele>
						<time>2025-03-13T14:11:39Z</time>
					</trkpt>
					<trkpt lat="45.683860" lon="3.095510">
						<ele>612</ele>
						<time>2025-03-13T14:11:45Z</time>
					</trkpt>
					<trkpt lat="45.683850" lon="3.096160">
						<ele>611</ele>
						<time>2025-03-13T14:12:08Z</time>
					</trkpt>
					<trkpt lat="45.683940" lon="3.096890">
						<ele>610</ele>
						<time>2025-03-13T14:12:34Z</time>
					</trkpt>
					<trkpt lat="45.683480" lon="3.098330">
						<ele>617</ele>
						<time>2025-03-13T14:13:29Z</time>
					</trkpt>
					<trkpt lat="45.683240" lon="3.098400">
						<ele>622</ele>
						<time>2025-03-13T14:13:41Z</time>
					</trkpt>
					<trkpt lat="45.682920" lon="3.098670">
						<ele>627</ele>
						<time>2025-03-13T14:14:00Z</time>
					</trkpt>
					<trkpt lat="45.682690" lon="3.098950">
						<ele>630</ele>
						<time>2025-03-13T14:14:15Z</time>
					</trkpt>
					<trkpt lat="45.681870" lon="3.099880">
						<ele>645</ele>
						<time>2025-03-13T14:15:07Z</time>
					</trkpt>
					<trkpt lat="45.681480" lon="3.100480">
						<ele>652</ele>
						<time>2025-03-13T14:15:36Z</time>
					</trkpt>
					<trkpt lat="45.681360" lon="3.100840">
						<ele>653</ele>
						<time>2025-03-13T14:15:50Z</time>
					</trkpt>
					<trkpt lat="45.681270" lon="3.100960">
						<ele>655</ele>
						<time>2025-03-13T14:15:56Z</time>
					</trkpt>
					<trkpt lat="45.681180" lon="3.100920">
						<ele>657</ele>
						<time>2025-03-13T14:16:01Z</time>
					</trkpt>
					<trkpt lat="45.681020" lon="3.100480">
						<ele>662</ele>
						<time>2025-03-13T14:16:18Z</time>
					</trkpt>
					<trkpt lat="45.680900" lon="3.100230">
						<ele>665</ele>
						<time>2025-03-13T14:16:29Z</time>
					</trkpt>
					<trkpt lat="45.680880" lon="3.100150">
						<ele>666</ele>
						<time>2025-03-13T14:16:32Z</time>
					</trkpt>
					<trkpt lat="45.680850" lon="3.100000">
						<ele>668</ele>
						<time>2025-03-13T14:16:37Z</time>
					</trkpt>
					<trkpt lat="45.680740" lon="3.099850">
						<ele>669</ele>
						<time>2025-03-13T14:16:45Z</time>
					</trkpt>
					<trkpt lat="45.680590" lon="3.099700">
						<ele>671</ele>
						<time>2025-03-13T14:16:54Z</time>
					</trkpt>
					<trkpt lat="45.680590" lon="3.099440">
						<ele>672</ele>
						<time>2025-03-13T14:17:03Z</time>
					</trkpt>
					<trkpt lat="45.680750" lon="3.098140">
						<ele>676</ele>
						<time>2025-03-13T14:17:49Z</time>
					</trkpt>
					<trkpt lat="45.680750" lon="3.097250">
						<ele>678</ele>
						<time>2025-03-13T14:18:20Z</time>
					</trkpt>
					<trkpt lat="45.680820" lon="3.096710">
						<ele>679</ele>
						<time>2025-03-13T14:18:39Z</time>
					</trkpt>
					<trkpt lat="45.680950" lon="3.095880">
						<ele>678</ele>
						<time>2025-03-13T14:19:09Z</time>
					</trkpt>
					<trkpt lat="45.681010" lon="3.095560">
						<ele>677</ele>
						<time>2025-03-13T14:19:21Z</time>
					</trkpt>
					<trkpt lat="45.681040" lon="3.095270">
						<ele>676</ele>
						<time>2025-03-13T14:19:31Z</time>
					</trkpt>
					<trkpt lat="45.681050" lon="3.095100">
						<ele>675</ele>
						<time>2025-03-13T14:19:37Z</time>
					</trkpt>
					<trkpt lat="45.681030" lon="3.094740">
						<ele>675</ele>
						<time>2025-03-13T14:19:50Z</time>
					</trkpt>
					<trkpt lat="45.681100" lon="3.093650">
						<ele>672</ele>
						<time>2025-03-13T14:20:28Z</time>
					</trkpt>
					<trkpt lat="45.681100" lon="3.093170">
						<ele>673</ele>
						<time>2025-03-13T14:20:45Z</time>
					</trkpt>
					<trkpt lat="45.681180" lon="3.092280">
						<ele>675</ele>
						<time>2025-03-13T14:21:16Z</time>
					</trkpt>
					<trkpt lat="45.681130" lon="3.091620">
						<ele>680</ele>
						<time>2025-03-13T14:21:39Z</time>
					</trkpt>
					<trkpt lat="45.680980" lon="3.090420">
						<ele>685</ele>
						<time>2025-03-13T14:22:22Z</time>
					</trkpt>
					<trkpt lat="45.680890" lon="3.089910">
						<ele>685</ele>
						<time>2025-03-13T14:22:40Z</time>
					</trkpt>
					<trkpt lat="45.680850" lon="3.089520">
						<ele>686</ele>
						<time>2025-03-13T14:22:54Z</time>
					</trkpt>
					<trkpt lat="45.680820" lon="3.089030">
						<ele>687</ele>
						<time>2025-03-13T14:23:11Z</time>
					</trkpt>
					<trkpt lat="45.680890" lon="3.088720">
						<ele>687</ele>
						<time>2025-03-13T14:23:23Z</time>
					</trkpt>
					<trkpt lat="45.681060" lon="3.088190">
						<ele>689</ele>
						<time>2025-03-13T14:23:43Z</time>
					</trkpt>
					<trkpt lat="45.681080" lon="3.088140">
						<ele>689</ele>
						<time>2025-03-13T14:23:45Z</time>
					</trkpt>
					<trkpt lat="45.681450" lon="3.087390">
						<ele>695</ele>
						<time>2025-03-13T14:24:17Z</time>
					</trkpt>
					<trkpt lat="45.681540" lon="3.086960">
						<ele>699</ele>
						<time>2025-03-13T14:24:33Z</time>
					</trkpt>
					<trkpt lat="45.681610" lon="3.086550">
						<ele>702</ele>
						<time>2025-03-13T14:24:48Z</time>
					</trkpt>
					<trkpt lat="45.681700" lon="3.086110">
						<ele>704</ele>
						<time>2025-03-13T14:25:04Z</time>
					</trkpt>
					<trkpt lat="45.681710" lon="3.085750">
						<ele>706</ele>
						<time>2025-03-13T14:25:16Z</time>
					</trkpt>
					<trkpt lat="45.681770" lon="3.085530">
						<ele>707</ele>
						<time>2025-03-13T14:25:24Z</time>
					</trkpt>
					<trkpt lat="45.682000" lon="3.085030">
						<ele>710</ele>
						<time>2025-03-13T14:25:45Z</time>
					</trkpt>
					<trkpt lat="45.682050" lon="3.084670">
						<ele>710</ele>
						<time>2025-03-13T14:25:58Z</time>
					</trkpt>
					<trkpt lat="45.682050" lon="3.084420">
						<ele>710</ele>
						<time>2025-03-13T14:26:07Z</time>
					</trkpt>
					<trkpt lat="45.682110" lon="3.084080">
						<ele>710</ele>
						<time>2025-03-13T14:26:19Z</time>
					</trkpt>
					<trkpt lat="45.682240" lon="3.083680">
						<ele>711</ele>
						<time>2025-03-13T14:26:35Z</time>
					</trkpt>
					<trkpt lat="45.682520" lon="3.083150">
						<ele>713</ele>
						<time>2025-03-13T14:26:58Z</time>
					</trkpt>
					<trkpt lat="45.682620" lon="3.082910">
						<ele>714</ele>
						<time>2025-03-13T14:27:08Z</time>
					</trkpt>
					<trkpt lat="45.682720" lon="3.082690">
						<ele>715</ele>
						<time>2025-03-13T14:27:17Z</time>
					</trkpt>
					<trkpt lat="45.682800" lon="3.082140">
						<ele>716</ele>
						<time>2025-03-13T14:27:36Z</time>
					</trkpt>
					<trkpt lat="45.682840" lon="3.081910">
						<ele>717</ele>
						<time>2025-03-13T14:27:45Z</time>
					</trkpt>
					<trkpt lat="45.682920" lon="3.081620">
						<ele>717</ele>
						<time>2025-03-13T14:27:56Z</time>
					</trkpt>
					<trkpt lat="45.682970" lon="3.081440">
						<ele>717</ele>
						<time>2025-03-13T14:28:02Z</time>
					</trkpt>
					<trkpt lat="45.683150" lon="3.080820">
						<ele>718</ele>
						<time>2025-03-13T14:28:26Z</time>
					</trkpt>
					<trkpt lat="45.683240" lon="3.080620">
						<ele>719</ele>
						<time>2025-03-13T14:28:34Z</time>
					</trkpt>
					<trkpt lat="45.683290" lon="3.080350">
						<ele>719</ele>
						<time>2025-03-13T14:28:44Z</time>
					</trkpt>
					<trkpt lat="45.683410" lon="3.079730">
						<ele>719</ele>
						<time>2025-03-13T14:29:06Z</time>
					</trkpt>
					<trkpt lat="45.683440" lon="3.079440">
						<ele>719</ele>
						<time>2025-03-13T14:29:17Z</time>
					</trkpt>
					<trkpt lat="45.683480" lon="3.079070">
						<ele>719</ele>
						<time>2025-03-13T14:29:30Z</time>
					</trkpt>
					<trkpt lat="45.683490" lon="3.078720">
						<ele>719</ele>
						<time>2025-03-13T14:29:42Z</time>
					</trkpt>
					<trkpt lat="45.683580" lon="3.078090">
						<ele>719</ele>
						<time>2025-03-13T14:30:04Z</time>
					</trkpt>
					<trkpt lat="45.683660" lon="3.077380">
						<ele>720</ele>
						<time>2025-03-13T14:30:30Z</time>
					</trkpt>
					<trkpt lat="45.683860" lon="3.076040">
						<ele>721</ele>
						<time>2025-03-13T14:31:18Z</time>
					</trkpt>
					<trkpt lat="45.684060" lon="3.074650">
						<ele>723</ele>
						<time>2025-03-13T14:32:07Z</time>
					</trkpt>
					<trkpt lat="45.684120" lon="3.073840">
						<ele>725</ele>
						<time>2025-03-13T14:32:36Z</time>
					</trkpt>
					<trkpt lat="45.684140" lon="3.073410">
						<ele>727</ele>
						<time>2025-03-13T14:32:51Z</time>
					</trkpt>
					<trkpt lat="45.684100" lon="3.073110">
						<ele>727</ele>
						<time>2025-03-13T14:33:01Z</time>
					</trkpt>
					<trkpt lat="45.684050" lon="3.072730">
						<ele>728</ele>
						<time>2025-03-13T14:33:15Z</time>
					</trkpt>
					<trkpt lat="45.683940" lon="3.072380">
						<ele>728</ele>
						<time>2025-03-13T14:33:28Z</time>
					</trkpt>
					<trkpt lat="45.683870" lon="3.072130">
						<ele>728</ele>
						<time>2025-03-13T14:33:38Z</time>
					</trkpt>
					<trkpt lat="45.683880" lon="3.071790">
						<ele>729</ele>
						<time>2025-03-13T14:33:50Z</time>
					</trkpt>
					<trkpt lat="45.683880" lon="3.071290">
						<ele>731</ele>
						<time>2025-03-13T14:34:07Z</time>
					</trkpt>
					<trkpt lat="45.683880" lon="3.070960">
						<ele>732</ele>
						<time>2025-03-13T14:34:19Z</time>
					</trkpt>
					<trkpt lat="45.683900" lon="3.070660">
						<ele>733</ele>
						<time>2025-03-13T14:34:29Z</time>
					</trkpt>
					<trkpt lat="45.683890" lon="3.070010">
						<ele>734</ele>
						<time>2025-03-13T14:34:52Z</time>
					</trkpt>
					<trkpt lat="45.684040" lon="3.069510">
						<ele>736</ele>
						<time>2025-03-13T14:35:11Z</time>
					</trkpt>
					<trkpt lat="45.684200" lon="3.069070">
						<ele>738</ele>
						<time>2025-03-13T14:35:28Z</time>
					</trkpt>
					<trkpt lat="45.684300" lon="3.068890">
						<ele>739</ele>
						<time>2025-03-13T14:35:36Z</time>
					</trkpt>
					<trkpt lat="45.684470" lon="3.068110">
						<ele>742</ele>
						<time>2025-03-13T14:36:05Z</time>
					</trkpt>
					<trkpt lat="45.684550" lon="3.067950">
						<ele>743</ele>
						<time>2025-03-13T14:36:12Z</time>
					</trkpt>
					<trkpt lat="45.684580" lon="3.067830">
						<ele>743</ele>
						<time>2025-03-13T14:36:16Z</time>
					</trkpt>
					<trkpt lat="45.684740" lon="3.067690">
						<ele>744</ele>
						<time>2025-03-13T14:36:26Z</time>
					</trkpt>
					<trkpt lat="45.685730" lon="3.066160">
						<ele>748</ele>
						<time>2025-03-13T14:37:38Z</time>
					</trkpt>
					<trkpt lat="45.688020" lon="3.062630">
						<ele>743</ele>
						<time>2025-03-13T14:40:27Z</time>
					</trkpt>
					<trkpt lat="45.687720" lon="3.057960">
						<ele>742</ele>
						<time>2025-03-13T14:43:11Z</time>
					</trkpt>
					<trkpt lat="45.687770" lon="3.057090">
						<ele>741</ele>
						<time>2025-03-13T14:43:41Z</time>
					</trkpt>
					<trkpt lat="45.687850" lon="3.056830">
						<ele>739</ele>
						<time>2025-03-13T14:43:51Z</time>
					</trkpt>
					<trkpt lat="45.688230" lon="3.056150">
						<ele>729</ele>
						<time>2025-03-13T14:44:22Z</time>
					</trkpt>
					<trkpt lat="45.688300" lon="3.055880">
						<ele>727</ele>
						<time>2025-03-13T14:44:32Z</time>
					</trkpt>
					<trkpt lat="45.688310" lon="3.055700">
						<ele>725</ele>
						<time>2025-03-13T14:44:38Z</time>
					</trkpt>
					<trkpt lat="45.688280" lon="3.055510">
						<ele>725</ele>
						<time>2025-03-13T14:44:45Z</time>
					</trkpt>
					<trkpt lat="45.688160" lon="3.054840">
						<ele>720</ele>
						<time>2025-03-13T14:45:09Z</time>
					</trkpt>
					<trkpt lat="45.688170" lon="3.054470">
						<ele>716</ele>
						<time>2025-03-13T14:45:22Z</time>
					</trkpt>
					<trkpt lat="45.688240" lon="3.054240">
						<ele>713</ele>
						<time>2025-03-13T14:45:31Z</time>
					</trkpt>
					<trkpt lat="45.688950" lon="3.053440">
						<ele>703</ele>
						<time>2025-03-13T14:46:16Z</time>
					</trkpt>
					<trkpt lat="45.689170" lon="3.053090">
						<ele>697</ele>
						<time>2025-03-13T14:46:32Z</time>
					</trkpt>
					<trkpt lat="45.689300" lon="3.052590">
						<ele>689</ele>
						<time>2025-03-13T14:46:51Z</time>
					</trkpt>
					<trkpt lat="45.689610" lon="3.052120">
						<ele>683</ele>
						<time>2025-03-13T14:47:14Z</time>
					</trkpt>
					<trkpt lat="45.689710" lon="3.051790">
						<ele>680</ele>
						<time>2025-03-13T14:47:26Z</time>
					</trkpt>
					<trkpt lat="45.689750" lon="3.051710">
						<ele>679</ele>
						<time>2025-03-13T14:47:30Z</time>
					</trkpt>
					<trkpt lat="45.689820" lon="3.051660">
						<ele>678</ele>
						<time>2025-03-13T14:47:34Z</time>
					</trkpt>
					<trkpt lat="45.689880" lon="3.051680">
						<ele>677</ele>
						<time>2025-03-13T14:47:37Z</time>
					</trkpt>
					<trkpt lat="45.689940" lon="3.051770">
						<ele>677</ele>
						<time>2025-03-13T14:47:41Z</time>
					</trkpt>
					<trkpt lat="45.690180" lon="3.052400">
						<ele>676</ele>
						<time>2025-03-13T14:48:06Z</time>
					</trkpt>
					<trkpt lat="45.690490" lon="3.052780">
						<ele>671</ele>
						<time>2025-03-13T14:48:27Z</time>
					</trkpt>
					<trkpt lat="45.691050" lon="3.053070">
						<ele>660</ele>
						<time>2025-03-13T14:48:56Z</time>
					</trkpt>
					<trkpt lat="45.691340" lon="3.053780">
						<ele>659</ele>
						<time>2025-03-13T14:49:25Z</time>
					</trkpt>
					<trkpt lat="45.691430" lon="3.053960">
						<ele>658</ele>
						<time>2025-03-13T14:49:33Z</time>
					</trkpt>
					<trkpt lat="45.692090" lon="3.054630">
						<ele>651</ele>
						<time>2025-03-13T14:50:13Z</time>
					</trkpt>
					<trkpt lat="45.692980" lon="3.055830">
						<ele>642</ele>
						<time>2025-03-13T14:51:15Z</time>
					</trkpt>
					<trkpt lat="45.693010" lon="3.055860">
						<ele>642</ele>
						<time>2025-03-13T14:51:16Z</time>
					</trkpt>
					<trkpt lat="45.693170" lon="3.055950">
						<ele>638</ele>
						<time>2025-03-13T14:51:25Z</time>
					</trkpt>
					<trkpt lat="45.693470" lon="3.056010">
						<ele>634</ele>
						<time>2025-03-13T14:51:40Z</time>
					</trkpt>
					<trkpt lat="45.693500" lon="3.056000">
						<ele>634</ele>
						<time>2025-03-13T14:51:42Z</time>
					</trkpt>
					<trkpt lat="45.693580" lon="3.055960">
						<ele>634</ele>
						<time>2025-03-13T14:51:46Z</time>
					</trkpt>
					<trkpt lat="45.693650" lon="3.055920">
						<ele>634</ele>
						<time>2025-03-13T14:51:50Z</time>
					</trkpt>
					<trkpt lat="45.693720" lon="3.055890">
						<ele>634</ele>
						<time>2025-03-13T14:51:53Z</time>
					</trkpt>
					<trkpt lat="45.693820" lon="3.055900">
						<ele>634</ele>
						<time>2025-03-13T14:51:58Z</time>
					</trkpt>
					<trkpt lat="45.693900" lon="3.055920">
						<ele>634</ele>
						<time>2025-03-13T14:52:02Z</time>
					</trkpt>
					<trkpt lat="45.694250" lon="3.055570">
						<ele>637</ele>
						<time>2025-03-13T14:52:24Z</time>
					</trkpt>
					<trkpt lat="45.694460" lon="3.055530">
						<ele>639</ele>
						<time>2025-03-13T14:52:34Z</time>
					</trkpt>
					<trkpt lat="45.694570" lon="3.055550">
						<ele>641</ele>
						<time>2025-03-13T14:52:40Z</time>
					</trkpt>
					<trkpt lat="45.695040" lon="3.055590">
						<ele>647</ele>
						<time>2025-03-13T14:53:04Z</time>
					</trkpt>
					<trkpt lat="45.695290" lon="3.055570">
						<ele>649</ele>
						<time>2025-03-13T14:53:16Z</time>
					</trkpt>
					<trkpt lat="45.695560" lon="3.055450">
						<ele>650</ele>
						<time>2025-03-13T14:53:30Z</time>
					</trkpt>
					<trkpt lat="45.697710" lon="3.054190">
						<ele>659</ele>
						<time>2025-03-13T14:55:26Z</time>
					</trkpt>
					<trkpt lat="45.698010" lon="3.054040">
						<ele>662</ele>
						<time>2025-03-13T14:55:42Z</time>
					</trkpt>
					<trkpt lat="45.698120" lon="3.053890">
						<ele>662</ele>
						<time>2025-03-13T14:55:50Z</time>
					</trkpt>
					<trkpt lat="45.698300" lon="3.053260">
						<ele>661</ele>
						<time>2025-03-13T14:56:14Z</time>
					</trkpt>
					<trkpt lat="45.698460" lon="3.052760">
						<ele>663</ele>
						<time>2025-03-13T14:56:33Z</time>
					</trkpt>
					<trkpt lat="45.698610" lon="3.052280">
						<ele>666</ele>
						<time>2025-03-13T14:56:51Z</time>
					</trkpt>
					<trkpt lat="45.698710" lon="3.051530">
						<ele>670</ele>
						<time>2025-03-13T14:57:18Z</time>
					</trkpt>
					<trkpt lat="45.698820" lon="3.051390">
						<ele>673</ele>
						<time>2025-03-13T14:57:25Z</time>
					</trkpt>
					<trkpt lat="45.699400" lon="3.051620">
						<ele>676</ele>
						<time>2025-03-13T14:57:56Z</time>
					</trkpt>
					<trkpt lat="45.699790" lon="3.051860">
						<ele>679</ele>
						<time>2025-03-13T14:58:17Z</time>
					</trkpt>
					<trkpt lat="45.699830" lon="3.051980">
						<ele>679</ele>
						<time>2025-03-13T14:58:21Z</time>
					</trkpt>
					<trkpt lat="45.699870" lon="3.052110">
						<ele>680</ele>
						<time>2025-03-13T14:58:26Z</time>
					</trkpt>
					<trkpt lat="45.699870" lon="3.052360">
						<ele>679</ele>
						<time>2025-03-13T14:58:35Z</time>
					</trkpt>
					<trkpt lat="45.699870" lon="3.052460">
						<ele>679</ele>
						<time>2025-03-13T14:58:39Z</time>
					</trkpt>
					<trkpt lat="45.699810" lon="3.052680">
						<ele>680</ele>
						<time>2025-03-13T14:58:47Z</time>
					</trkpt>
					<trkpt lat="45.699690" lon="3.052910">
						<ele>681</ele>
						<time>2025-03-13T14:58:57Z</time>
					</trkpt>
					<trkpt lat="45.699500" lon="3.053230">
						<ele>681</ele>
						<time>2025-03-13T14:59:12Z</time>
					</trkpt>
					<trkpt lat="45.699290" lon="3.053510">
						<ele>681</ele>
						<time>2025-03-13T14:59:26Z</time>
					</trkpt>
					<trkpt lat="45.699170" lon="3.053790">
						<ele>682</ele>
						<time>2025-03-13T14:59:37Z</time>
					</trkpt>
					<trkpt lat="45.699110" lon="3.054050">
						<ele>684</ele>
						<time>2025-03-13T14:59:47Z</time>
					</trkpt>
					<trkpt lat="45.699150" lon="3.054300">
						<ele>685</ele>
						<time>2025-03-13T14:59:56Z</time>
					</trkpt>
					<trkpt lat="45.699500" lon="3.054760">
						<ele>690</ele>
						<time>2025-03-13T15:00:20Z</time>
					</trkpt>
					<trkpt lat="45.699890" lon="3.054940">
						<ele>697</ele>
						<time>2025-03-13T15:00:40Z</time>
					</trkpt>
					<trkpt lat="45.700200" lon="3.055100">
						<ele>700</ele>
						<time>2025-03-13T15:00:57Z</time>
					</trkpt>
					<trkpt lat="45.700440" lon="3.055250">
						<ele>702</ele>
						<time>2025-03-13T15:01:10Z</time>
					</trkpt>
					<trkpt lat="45.700680" lon="3.055440">
						<ele>704</ele>
						<time>2025-03-13T15:01:24Z</time>
					</trkpt>
					<trkpt lat="45.700980" lon="3.055730">
						<ele>706</ele>
						<time>2025-03-13T15:01:42Z</time>
					</trkpt>
					<trkpt lat="45.701210" lon="3.055950">
						<ele>709</ele>
						<time>2025-03-13T15:01:55Z</time>
					</trkpt>
					<trkpt lat="45.701470" lon="3.056260">
						<ele>710</ele>
						<time>2025-03-13T15:02:12Z</time>
					</trkpt>
					<trkpt lat="45.701530" lon="3.056320">
						<ele>710</ele>
						<time>2025-03-13T15:02:16Z</time>
					</trkpt>
					<trkpt lat="45.701610" lon="3.056410">
						<ele>711</ele>
						<time>2025-03-13T15:02:21Z</time>
					</trkpt>
					<trkpt lat="45.701590" lon="3.056430">
						<ele>710</ele>
						<time>2025-03-13T15:02:22Z</time>
					</trkpt>
					</trkseg>
				</trk>
			</gpx>